When you browse on this site, cookies collect data to enhance your experience and personalize the content and advertising you see.
Visit our Privacy Policy to learn more. By continuing to use the site, you agree to this use of cookies and data.
  • In Portugal
  • List of Countries
  • For 7 days
  • Water Temperature
  • Satellite Maps
  • Weather Map
  • Weather Widgets
  • user-avatar
    Login

    Hourly Weather Bikulov Pochinok

    Today, 23 July, Tuesday

    Time Temperature Precipitation Wind Pressure Humidity
    00:00 +13°C° 0 mm 3 mps 747 mmHg 95%
    01:00 +12°C° 0 mm 3 mps 747 mmHg 95%
    02:00 +13°C° 0 mm 2 mps 747 mmHg 95%
    03:00 +13°C° 0 mm 2 mps 747 mmHg 95%
    04:00 +14°C° 0 mm 2 mps 747 mmHg 93%
    05:00 +13°C° 0 mm 3 mps 747 mmHg 91%
    06:00 +14°C° 0 mm 3 mps 748 mmHg 88%
    07:00 +17°C° 0 mm 3 mps 748 mmHg 81%
    08:00 +18°C° 0 mm 3 mps 748 mmHg 74%
    09:00 +20°C° 0 mm 3 mps 748 mmHg 66%
    10:00 +21°C° 0 mm 3 mps 748 mmHg 64%
    11:00 +21°C° 0 mm 3 mps 748 mmHg 62%
    12:00 +22°C° 0 mm 3 mps 748 mmHg 60%
    13:00 +22°C° 0 mm 3 mps 748 mmHg 60%
    14:00 +24°C° 0 mm 3 mps 748 mmHg 59%
    15:00 +24°C° 0 mm 3 mps 748 mmHg 58%
    16:00 +24°C° 0 mm 3 mps 748 mmHg 63%
    17:00 +22°C° 0 mm 3 mps 748 mmHg 68%
    18:00 +21°C° 0 mm 2 mps 748 mmHg 73%
    19:00 +20°C° 0 mm 2 mps 748 mmHg 77%
    20:00 +18°C° 0 mm 2 mps 748 mmHg 82%
    21:00 +16°C° 0 mm 1 mps 748 mmHg 87%
    22:00 +16°C° 0 mm 1 mps 748 mmHg 88%
    23:00 +16°C° 0 mm 1 mps 749 mmHg 89%

    Tomorrow, 24 July, Wednesday

    Time Temperature Precipitation Wind Pressure Humidity
    00:00 +15°C° 0 mm 1 mps 749 mmHg 90%
    01:00 +15°C° 0 mm 1 mps 749 mmHg 91%
    02:00 +15°C° 0 mm 1 mps 749 mmHg 91%
    03:00 +14°C° 0 mm 1 mps 749 mmHg 92%
    04:00 +15°C° 0 mm 1 mps 749 mmHg 90%
    05:00 +16°C° 0 mm 1 mps 749 mmHg 88%
    06:00 +16°C° 0 mm 0 mps 749 mmHg 86%
    07:00 +20°C° 0 mm 1 mps 750 mmHg 81%
    08:00 +21°C° 0 mm 1 mps 750 mmHg 75%
    09:00 +22°C° 0 mm 1 mps 750 mmHg 70%
    10:00 +23°C° 0 mm 1 mps 750 mmHg 66%
    11:00 +24°C° 0 mm 1 mps 750 mmHg 62%
    12:00 +25°C° 0 mm 2 mps 750 mmHg 58%
    13:00 +25°C° 0 mm 2 mps 750 mmHg 57%
    14:00 +25°C° 0 mm 2 mps 750 mmHg 57%
    15:00 +26°C° 0 mm 2 mps 750 mmHg 57%
    16:00 +25°C° 0 mm 2 mps 750 mmHg 62%
    17:00 +24°C° 0 mm 2 mps 750 mmHg 67%
    18:00 +24°C° 0 mm 2 mps 750 mmHg 72%
    19:00 +21°C° 0 mm 2 mps 750 mmHg 77%
    20:00 +21°C° 0 mm 1 mps 750 mmHg 81%
    21:00 +19°C° 0 mm 1 mps 750 mmHg 85%
    22:00 +18°C° 0 mm 1 mps 750 mmHg 86%
    23:00 +18°C° 0 mm 1 mps 750 mmHg 87%

    Day after tomorrow, 25 July, Thursday

    Time Temperature Precipitation Wind Pressure Humidity
    00:00 +18°C° 0 mm 1 mps 750 mmHg 88%
    01:00 +16°C° 0 mm 1 mps 750 mmHg 89%
    02:00 +16°C° 0 mm 1 mps 750 mmHg 90%
    03:00 +16°C° 0 mm 1 mps 750 mmHg 91%
    04:00 +18°C° 0 mm 1 mps 750 mmHg 89%
    05:00 +19°C° 0 mm 1 mps 750 mmHg 87%
    06:00 +20°C° 0 mm 1 mps 751 mmHg 85%
    07:00 +20°C° 0 mm 2 mps 751 mmHg 80%
    08:00 +23°C° 0 mm 2 mps 751 mmHg 74%
    09:00 +25°C° 0 mm 2 mps 751 mmHg 68%
    10:00 +26°C° 0 mm 3 mps 751 mmHg 64%
    11:00 +26°C° 0 mm 3 mps 751 mmHg 60%
    12:00 +27°C° 0 mm 3 mps 751 mmHg 56%
    13:00 +28°C° 0 mm 3 mps 750 mmHg 55%
    14:00 +28°C° 0 mm 4 mps 750 mmHg 55%
    15:00 +28°C° 0 mm 4 mps 750 mmHg 54%
    16:00 +27°C° 0 mm 4 mps 750 mmHg 59%
    17:00 +26°C° 0 mm 3 mps 750 mmHg 64%
    18:00 +25°C° 0 mm 3 mps 750 mmHg 69%
    19:00 +24°C° 0 mm 3 mps 750 mmHg 74%
    20:00 +21°C° 0 mm 3 mps 750 mmHg 78%
    21:00 +20°C° 0 mm 3 mps 750 mmHg 83%
    22:00 +19°C° 0 mm 3 mps 750 mmHg 85%
    23:00 +19°C° 0 mm 3 mps 750 mmHg 86%

    26 July, Friday

    Time Temperature Precipitation Wind Pressure Humidity
    00:00 +18°C° 0 mm 3 mps 750 mmHg 88%
    01:00 +18°C° 0 mm 3 mps 750 mmHg 89%
    02:00 +17°C° 0 mm 3 mps 749 mmHg 89%
    03:00 +17°C° 0 mm 3 mps 749 mmHg 90%
    04:00 +18°C° 0 mm 4 mps 749 mmHg 88%
    05:00 +19°C° 0 mm 4 mps 749 mmHg 85%
    06:00 +19°C° 0 mm 4 mps 749 mmHg 83%
    07:00 +21°C° 0 mm 4 mps 749 mmHg 79%
    08:00 +23°C° 0 mm 4 mps 749 mmHg 75%
    09:00 +25°C° 0 mm 4 mps 749 mmHg 71%
    10:00 +26°C° 0.1 mm 4 mps 749 mmHg 66%
    11:00 +27°C° 0.1 mm 4 mps 748 mmHg 62%
    12:00 +28°C° 0.1 mm 4 mps 748 mmHg 58%
    13:00 +28°C° 0.3 mm 4 mps 748 mmHg 59%
    14:00 +28°C° 0.3 mm 4 mps 748 mmHg 61%
    15:00 +28°C° 0.3 mm 4 mps 747 mmHg 62%
    16:00 +27°C° 0.6 mm 4 mps 747 mmHg 68%
    17:00 +26°C° 0.6 mm 4 mps 747 mmHg 73%
    18:00 +25°C° 0.6 mm 4 mps 747 mmHg 79%
    19:00 +22°C° 0 mm 4 mps 747 mmHg 82%
    20:00 +21°C° 0 mm 4 mps 747 mmHg 85%
    21:00 +20°C° 0 mm 4 mps 747 mmHg 88%
    22:00 +19°C° 0 mm 4 mps 747 mmHg 89%
    23:00 +19°C° 0 mm 3 mps 747 mmHg 90%

    27 July, Saturday

    Time Temperature Precipitation Wind Pressure Humidity
    00:00 +18°C° 0 mm 3 mps 746 mmHg 91%
    01:00 +18°C° 0 mm 3 mps 746 mmHg 90%
    02:00 +17°C° 0 mm 3 mps 746 mmHg 90%
    03:00 +17°C° 0 mm 3 mps 746 mmHg 89%
    04:00 +18°C° 0.1 mm 2 mps 746 mmHg 88%
    05:00 +19°C° 0.1 mm 1 mps 746 mmHg 86%
    06:00 +20°C° 0.1 mm 1 mps 746 mmHg 85%
    07:00 +21°C° 0.1 mm 1 mps 745 mmHg 80%
    08:00 +21°C° 0.1 mm 2 mps 745 mmHg 75%
    09:00 +24°C° 0.1 mm 2 mps 745 mmHg 70%
    10:00 +25°C° 0.4 mm 2 mps 745 mmHg 67%
    11:00 +26°C° 0.4 mm 3 mps 744 mmHg 64%
    12:00 +27°C° 0.4 mm 3 mps 744 mmHg 61%
    13:00 +27°C° 1.1 mm 3 mps 743 mmHg 60%
    14:00 +27°C° 1.1 mm 2 mps 743 mmHg 58%
    15:00 +27°C° 1.1 mm 1 mps 742 mmHg 57%
    16:00 +26°C° 0.3 mm 1 mps 742 mmHg 62%
    17:00 +26°C° 0.3 mm 1 mps 742 mmHg 67%
    18:00 +25°C° 0.3 mm 1 mps 741 mmHg 72%
    19:00 +23°C° 0.1 mm 1 mps 741 mmHg 75%
    20:00 +22°C° 0.1 mm 1 mps 741 mmHg 79%
    21:00 +20°C° 0.1 mm 1 mps 740 mmHg 82%
    22:00 +20°C° 0.1 mm 1 mps 740 mmHg 84%
    23:00 +19°C° 0.1 mm 1 mps 739 mmHg 85%

    28 July, Sunday

    Time Temperature Precipitation Wind Pressure Humidity
    00:00 +17°C° 0.1 mm 2 mps 739 mmHg 87%
    01:00 +17°C° 0 mm 2 mps 739 mmHg 87%
    02:00 +17°C° 0 mm 2 mps 738 mmHg 88%
    03:00 +17°C° 0 mm 2 mps 737 mmHg 88%
    04:00 +17°C° 0.5 mm 2 mps 737 mmHg 90%
    05:00 +17°C° 0.5 mm 2 mps 737 mmHg 92%
    06:00 +17°C° 0.5 mm 3 mps 736 mmHg 93%
    07:00 +17°C° 2.2 mm 3 mps 736 mmHg 94%
    08:00 +17°C° 2.2 mm 3 mps 736 mmHg 95%
    09:00 +17°C° 2.2 mm 3 mps 735 mmHg 96%
    10:00 +17°C° 2.9 mm 4 mps 735 mmHg 94%
    11:00 +16°C° 2.9 mm 5 mps 736 mmHg 92%
    12:00 +15°C° 2.9 mm 6 mps 736 mmHg 90%
    13:00 +15°C° 0.1 mm 6 mps 736 mmHg 86%
    14:00 +15°C° 0.1 mm 6 mps 736 mmHg 81%
    15:00 +15°C° 0.1 mm 7 mps 736 mmHg 77%
    16:00 +14°C° 0 mm 6 mps 737 mmHg 76%
    17:00 +14°C° 0 mm 6 mps 737 mmHg 75%
    18:00 +13°C° 0 mm 6 mps 737 mmHg 74%
    19:00 +12°C° 0 mm 5 mps 737 mmHg 77%
    20:00 +10°C° 0 mm 5 mps 737 mmHg 80%
    21:00 +8°C° 0 mm 4 mps 737 mmHg 83%
    22:00 +8°C° 0 mm 4 mps 737 mmHg 82%
    23:00 +8°C° 0 mm 5 mps 737 mmHg 81%
    Show more